{"data":{"norad_id":53100,"epoch":"2026-09-20T03:17:05.324352Z","epoch_age_seconds":53371,"freshness":"FRESH","line1":"1 53100U 22078A   26263.13686718  .00000068  00000+0  00000+0 0  9999","line2":"2 53100   0.9079  77.7936 0001707 149.3877 191.6980  1.00272177 15499","mean_motion":1.00272177,"eccentricity":0.0001707,"inclination_deg":0.9079,"raan_deg":77.7936,"arg_perigee_deg":149.3877,"mean_anomaly_deg":191.698,"bstar":0,"rev_number":1549,"period_min":1436.0912898101,"perigee_km":35779.287568731,"apogee_km":35793.682570706,"semimajor_km":42164.622069719,"source":"CELESTRAK","updated_at":"2026-09-20T09:00:35.305147Z"}}